Regional Weather Roundup
Issued by NWS

Home | Current Version | Previous Version | Graphics & Text | Print | Product List | Glossary On
Versions: 1 2 3 4 5 6 7 8 9 10 11 12 13 14 15 16 17 18 19 20 21 22 23 24 25 26 27 28 29 30 31 32 33 34 35 36 37 38 39 40 41 42 43 44 45 46 47 48 49 50
000
ASUS45 KBOU 220010
RWRCO

WEATHER ROUNDUP FOR COLORADO
NATIONAL WEATHER SERVICE DENVER/BOULDER CO
500 PM MST SUN JAN 21 2018

NOTE: "FAIR" INDICATES FEW OR NO CLOUDS BELOW 12000 FEET WITH NO
SIGNIFICANT WEATHER AND/OR OBSTRUCTIONS TO VISIBILITY.

COZ001>005-013-030-031-220100-
...NORTHWEST COLORADO...

CITY           SKY/WX    TMP DP  RH WIND       PRES   REMARKS
CRAIG          CLOUDY    22  14  71 NW8       30.05R WCI  12
HAYDEN         MOCLDY   N/A N/A N/A NW9       30.03R
MEEKER         LGT SNOW  23  17  78 N8        30.05R WCI  14
RABBIT EARS PA SNOW       9   5  85 W9G18     29.84R VSB 1/2 WCI  -5
STEAMBOAT SPGS CLOUDY    21   9  57 NW7       29.97R WCI  13
WALDEN         CLOUDY    14   9  79 NW12      29.94R WCI   0
$$

COZ006>008-011-220100-
...WEST CENTRAL VALLEYS...

CITY           SKY/WX    TMP DP  RH WIND       PRES   REMARKS
GRAND JUNCTION FAIR      29  20  69 NW14      30.10R WCI  18
MONTROSE       MOCLDY    27  18  69 NW24      30.06R WCI  12
EAGLE          FLURRIES  25  19  80 W5        29.98R WCI  19
RIFLE          FAIR      28  16  60 NW13      30.05R WCI  17
DELTA          FAIR      32  17  54 W16G26    30.05R WCI  21
NUCLA          FAIR      30  14  51 NW13G18   30.09R WCI  20
$$

COZ017>023-064>068-220100-
...SOUTHWEST COLORADO...

CITY           SKY/WX    TMP DP  RH WIND       PRES   REMARKS
DURANGO        FAIR      26  17  68 W21       29.86R WCI  12
CORTEZ         FAIR      29  18  63 NW13G24   30.02R WCI  19
PAGOSA SPRINGS SNOW      25  23  94 E5        29.85R VSB 1/2 WCI  19
TELLURIDE      LGT SNOW  16  10  77 W9G21     29.95R VSB 1   WCI   4
WOLF CREEK PAS CLOUDY     3   1  92 W9        29.81R WCI -11
$$

COZ009-010-012-014-032>034-037-058>063-220100-
...CENTRAL COLORADO...

CITY           SKY/WX    TMP DP  RH WIND       PRES   REMARKS
ASPEN          LGT SNOW  19  16  88 N7        29.90R VSB 1   WCI  10
BUENA VISTA    FAIR      19   6  58 W9        29.82R WCI   8
COPPER MTN     NOT AVBL
BERTHOUD PASS  CLOUDY     0 -13  55 N18G36    29.69S WCI -22
COTTONWOOD PAS FLURRIES  19  12  73 NW6       29.78R WCI  11
GUNNISON       FAIR      21  13  71 E3        29.90R
KREMMLING      CLOUDY    25  14  63 NW13      29.94R WCI  13
LEADVILLE      CLOUDY    10   3  73 N12       29.79R WCI  -5
MONARCH PASS   LGT SNOW   5   1  85 NW15G28   29.84R VSB 1   WCI -13
SALIDA         FAIR      23  19  85 CALM      29.90R
SUNLIGHT       CLOUDY   N/A N/A N/A MISG      29.92R
WILKERSON PASS   N/A      7   3  85 N6G16     29.75R WCI  -3
$$

COZ069>075-220100-
...SAN LUIS VALLEY/SANGRE DE CRISTO MOUNTAINS...

CITY           SKY/WX    TMP DP  RH WIND       PRES   REMARKS
ALAMOSA        CLOUDY    25   9  50 N17G28    29.80R WCI  12
DEL NORTE      MOCLDY    24   3  41 NW17G23   29.81R WCI  11
LA VETA PASS   LGT SNOW  12   9  85 NW17G33     N/A  WCI  -5
SAGUACHE       CLOUDY    21  12  68 NW17G23   29.82R WCI   7
$$

COZ035-036-038>040-220100-
...NORTHERN COLORADO FRONT RANGE...

CITY           SKY/WX    TMP DP  RH WIND       PRES   REMARKS
DENVER INTL AP LGT SNOW  24  19  81 N24       29.91R WCI   8
DMNS CITY PARK NOT AVBL
AURORA         LGT SNOW  23  21  94 N17G31    29.91R FOG     WCI   9
FRONT RANGE AP LGT SNOW  25  23  93 NW21      29.91R VSB 1   WCI  10
ERIE MUNI ARPT CLOUDY    26  22  86 N17       29.99R WCI  13
BOULDER MUN AP CLOUDY    27  23  86 N5        29.94R WCI  21
CENTENNIAL     LGT SNOW  22  19  89 N21       29.90R BLWGSNOWWCI   6
BROOMFIELD     CLOUDY    25  21  86 N13       29.93R WCI  13
FORT COLLINS   FLURRIES  25  22  88 N18       29.96R WCI  11
LONGMONT       CLOUDY    28  24  82 N14G20    29.96R WCI  17
$$

COZ041-046-047-076>085-087-088-220100-
...PIKES PEAK/PALMER DIVIDE AND SOUTHERN FOOTHILLS...

CITY           SKY/WX    TMP DP  RH WIND       PRES   REMARKS
COLO. SPRINGS  LGT SNOW  23  16  74 N22G35    29.83R FOG     WCI   8
A. F. ACADEMY  CLOUDY    20  15  82 N25G39    29.82R BLWGSNOWWCI   3
SCHRIEVER AFB  FLURRIES  22  15  74 N21G33    29.82R WCI   6
CHEYENNE MTN   FAIR      21  11  64 N12G22    29.74R WCI   9
ELLICOTT       LGT SNOW N/A N/A N/A N21G30      N/A
FALCON         LGT SNOW  20  14  79 N22G40    29.80R WCI   3
FORT CARSON    PTCLDY    25  13  61 N24G36    29.82R WCI   9
LIMON          SNOW      22  21  96 N30G44    29.80R VSB 1/2 WCI   4
MONUMENT HILL  LGT SNOW  18  14  86 N25G39    29.83R VSB 3/4 WCI  -1
CANON CITY     FAIR      32  18  55 W15       29.83R WCI  22
WALSENBURG     CLOUDY    25  23  93 NE10      29.83R WCI  15
TRINIDAD       CLOUDY    26  20  77 N12G20    29.85R WCI  16
$$

COZ042>045-048>051-090-091-220100-
...NORTHEAST COLORADO...

CITY           SKY/WX    TMP DP  RH WIND       PRES   REMARKS
GREELEY ARPT   FAIR      26  21  81 N20       29.95R WCI  12
AKRON          FOG       24  23  96 N29G38    29.83R VSB 1/2 WCI   7
BURLINGTON     FOG       27  25  92 N25G40    29.74R VSB 1/4 WCI  12
WRAY           CLOUDY    30  30 100 MISG      29.78R
YUMA           SNOW      27  25  93 N24G30    29.81R VSB 1/4 WCI  12
STERLING       LGT SNOW  28  27  93 N25G33    29.86S WCI  14
HOLYOKE        CLOUDY    32  30  93 N28G36    29.81S WCI  18
FORT MORGAN    LGT SNOW  26  20  78 N25G33    29.91R WCI  11
$$

COZ086-089-092>099-220100-
...SOUTHEAST COLORADO...

CITY           SKY/WX    TMP DP  RH WIND       PRES   REMARKS
PUEBLO         CLOUDY    31  19  61 N16G24    29.87R WCI  20
LA JUNTA       CLOUDY    32  23  69 N20G29    29.85R WCI  20
LAMAR          SNOW      30  27  88 NW20G25   29.78R VSB 1/2 WCI  17
SPRINGFIELD      N/A     27  25  92 NW32G44   29.75R WCI  10
$$



USA.gov is the U.S. government's official web portal to all federal, state and local government web resources and services.